Find Starlink 32261

NORAD ID: 61530 Int'l Des: 2024-183 Owner: SPXS Country: US Constellation: starlink operational
LEOCIRCULAR

Live Position

Loading 3D Globe...

About Starlink 32261

Description loading...

Upcoming Passes

Passes for default location (London). Set your location on the main map for personalized predictions.

Altitude History

Loading altitude history...

Two-Line Element Set

1 61530U 24183X 26104.89646126 -.00000755 00000-0 -13355-4 0 9998
2 61530 53.1615 334.4308 0001547 102.2450 257.8724 15.30181775 85190
Epoch: Apr 14, 2026 • Age: 6 hours

Current Status

Altitude 476.3 km
Velocity 7.63 km/s
Sub-Earth Point 0.38°N, 73.37°E
Launch Date Oct 15, 2024
Age 1.4 years
Type internet

Technical Details

Classification Payload
Mass 730.00 kg
Dry Mass 700.00 kg
Total Mass 730.00 kg
Length 0.30 m
Diameter 4.10 m
Span 29.00 m
Shape Box + pan
Manufacturer SPXS
Bus Type Starlink V2M
Phase Status In Orbit
Owner/State SPXS/US

Most Searched